1487480400.44,25449,10.88,73364.3,-11.55,-12.25,-12.35,0,*6F
1487480401.72,25450,10.88,73364.8,-11.55,-12.25,-12.35,0,*67
1487480402.99,25451,10.88,73364.8,-11.55,-12.25,-12.35,0,*66
1487480404.23,25452,10.88,73364.0,-11.55,-12.25,-12.39,0,*69
1487480405.48,25453,10.88,73360.8,-11.55,-12.25,-12.39,0,*68
1487480406.73,25454,10.88,73362.3,-11.55,-12.21,-12.39,0,*6B
1487480408.0,25455,10.88,73368.5,-11.51,-12.25,-12.35,0,*66
1487480409.26,25456,10.88,73366.0,-11.51,-12.25,-12.35,0,*65
1487480410.51,25457,10.88,73364.3,-11.51,-12.25,-12.39,0,*68
1487480411.75,25458,10.88,73364.3,-11.51,-12.25,-12.39,0,*67
1487480412.99,25459,10.88,73370.5,-11.55,-12.25,-12.39,0,*62
1487480414.24,25460,10.88,73370.0,-11.51,-12.25,-12.39,0,*6C
1487480415.5,25461,10.88,73364.8,-11.51,-12.35,-12.39,0,*6C
1487480416.74,25462,10.88,73366.0,-11.51,-12.25,-12.39,0,*6E
1487480418.01,25463,10.88,73368.5,-11.51,-12.35,-12.39,0,*6E
1487480419.27,25464,10.88,73364.0,-11.51,-12.35,-12.39,0,*69
1487480420.54,25465,10.88,73364.5,-11.51,-12.35,-12.39,0,*68
1487480421.81,25466,10.88,73362.5,-11.51,-12.25,-12.35,0,*66
1487480423.08,25467,10.88,73362.8,-11.51,-12.21,-12.35,0,*63
1487480424.37,25468,10.88,73360.8,-11.51,-12.11,-12.35,0,*6F
1487480425.61,25469,10.88,73360.5,-11.51,-12.25,-12.39,0,*65
1487480426.89,25470,10.88,73360.3,-11.51,-12.21,-12.35,0,*65
1487480428.11,25471,10.88,73364.3,-11.49,-12.21,-12.29,0,*60
1487480429.35,25472,10.88,73362.3,-11.51,-12.21,-12.25,0,*66
1487480430.63,25473,10.88,73364.8,-11.51,-12.21,-12.35,0,*66
1487480431.9,25474,10.88,73366.5,-11.51,-12.21,-12.35,0,*61
1487480433.17,25475,10.88,73364.3,-11.51,-12.21,-12.35,0,*60
1487480434.44,25476,10.88,73368.8,-11.51,-12.25,-12.35,0,*67
1487480435.71,25477,10.88,73370.3,-11.51,-12.25,-12.35,0,*66
1487480436.99,25478,10.88,73368.3,-11.51,-12.21,-12.35,0,*6D
1487480438.28,25479,10.88,73364.3,-11.51,-12.35,-12.35,0,*69
1487480439.52,25480,10.88,73366.0,-11.51,-12.21,-12.39,0,*66
1487480440.79,25481,10.88,73366.5,-11.51,-12.35,-12.39,0,*62
1487480442.03,25482,10.88,73366.5,-11.51,-12.25,-12.39,0,*60
1487480443.27,25483,10.88,73364.8,-11.51,-12.25,-12.39,0,*61
1487480444.51,25484,10.88,73368.3,-11.51,-12.25,-12.39,0,*66
1487480445.76,25485,10.88,73370.5,-11.51,-12.25,-12.39,0,*67
1487480447.0,25486,10.88,73368.5,-11.49,-12.29,-12.35,0,*6D
1487480448.21,25487,10.88,73364.8,-11.49,-12.39,-12.39,0,*61
1487480449.45,25488,10.88,73366.5,-11.49,-12.35,-12.39,0,*62
1487480450.7,25489,10.88,73364.3,-11.51,-12.25,-12.39,0,*6B
1487480451.94,25490,10.88,73364.5,-11.49,-12.29,-12.35,0,*6A
1487480453.18,25491,10.88,73364.3,-11.51,-12.39,-12.39,0,*6F
1487480454.42,25492,10.88,73366.3,-11.51,-12.25,-12.39,0,*61
1487480455.66,25493,10.88,73368.5,-11.51,-12.25,-12.39,0,*60
1487480456.88,25494,10.88,73366.5,-11.49,-12.29,-12.29,0,*63
1487480458.13,25495,10.88,73366.0,-11.49,-12.29,-12.35,0,*6F
1487480459.4,25496,10.88,73364.5,-11.51,-12.25,-12.35,0,*69
1487480460.64,25497,10.88,73362.5,-11.51,-12.25,-12.39,0,*64
1487480461.88,25498,10.88,73360.5,-11.49,-12.15,-12.29,0,*60
1487480463.1,25499,10.88,73368.0,-11.49,-12.21,-12.29,0,*66
1487480464.34,25500,10.88,73366.8,-11.49,-12.15,-12.21,0,*68
1487480465.57,25501,10.88,73364.8,-11.49,-12.21,-12.29,0,*66
1487480466.83,25502,10.88,73362.0,-11.49,-12.15,-12.35,0,*6F
1487480468.06,25503,10.88,73362.5,-11.49,-12.21,-12.29,0,*64
1487480469.28,25504,10.88,73364.8,-11.49,-12.21,-12.29,0,*63
1487480470.5,25505,10.88,73366.3,-11.49,-12.29,-12.29,0,*6A
1487480471.77,25506,10.88,73362.5,-11.49,-12.15,-12.35,0,*6B
1487480473.01,25507,10.88,73364.5,-11.49,-12.29,-12.35,0,*65
1487480474.25,25508,10.88,73366.0,-11.49,-12.35,-12.29,0,*6A
1487480475.5,25509,10.88,73368.0,-11.49,-12.29,-12.35,0,*6B
1487480476.74,25510,10.88,73364.8,-11.49,-12.29,-12.35,0,*63
1487480477.99,25511,10.88,73370.5,-11.49,-12.29,-12.35,0,*62
1487480479.26,25512,10.88,73366.8,-11.51,-12.35,-12.39,0,*69
1487480480.47,25513,10.88,73366.8,-11.49,-12.29,-12.29,0,*6D
1487480481.72,25514,10.88,73366.5,-11.51,-12.25,-12.39,0,*6E
1487480482.96,25515,10.88,73366.5,-11.49,-12.29,-12.35,0,*66
1487480484.21,25516,10.88,73364.0,-11.49,-12.21,-12.35,0,*6D
1487480485.43,25517,10.88,73364.8,-11.49,-12.21,-12.29,0,*61
1487480486.68,25518,10.88,73372.5,-11.49,-12.21,-12.35,0,*63
1487480487.93,25519,10.88,73366.5,-11.49,-12.21,-12.35,0,*62
1487480489.2,25520,10.88,73360.5,-11.49,-12.15,-12.35,0,*6F
1487480490.45,25521,10.88,73364.8,-11.49,-12.21,-12.35,0,*69
1487480491.7,25522,10.88,73368.5,-11.49,-12.29,-12.35,0,*62
1487480492.94,25523,10.88,73370.5,-11.49,-12.29,-12.35,0,*63
1487480494.21,25524,10.88,73368.0,-11.49,-12.35,-12.35,0,*69
1487480495.43,25525,10.88,73362.3,-11.49,-12.29,-12.39,0,*69
1487480496.69,25526,10.88,73368.3,-11.47,-12.35,-12.39,0,*69
1487480497.93,25527,10.88,73366.3,-11.49,-12.35,-12.47,0,*6F
1487480499.15,25528,10.88,73362.5,-11.49,-12.29,-12.39,0,*64
1487480500.39,25529,10.88,73362.8,-11.51,-12.39,-12.39,0,*6D
1487480501.63,25530,10.88,73362.8,-11.49,-12.35,-12.39,0,*60
1487480502.87,25531,10.88,73364.5,-11.49,-12.35,-12.39,0,*61
1487480504.11,25532,10.88,73366.3,-11.49,-12.35,-12.39,0,*62
1487480505.35,25533,10.88,73370.5,-11.49,-12.35,-12.39,0,*63
1487480506.59,25534,10.88,73366.3,-11.49,-12.35,-12.39,0,*64
1487480507.83,25535,10.88,73364.0,-11.49,-12.35,-12.39,0,*65
1487480509.07,25536,10.88,73366.5,-11.49,-12.35,-12.47,0,*6F
1487480510.31,25537,10.88,73370.5,-11.49,-12.35,-12.39,0,*67
1487480511.55,25538,10.88,73366.3,-11.49,-12.35,-12.47,0,*61
1487480512.79,25539,10.88,73368.8,-11.49,-12.47,-12.53,0,*60
1487480514.03,25540,10.88,73366.0,-11.49,-12.39,-12.53,0,*67
1487480515.29,25541,10.88,73366.8,-11.47,-12.39,-12.61,0,*69
1487480516.56,25542,10.88,73366.5,-11.47,-12.39,-12.53,0,*6B
1487480517.8,25543,10.88,73364.3,-11.49,-12.39,-12.53,0,*64
1487480519.04,25544,10.88,73364.3,-11.49,-12.39,-12.53,0,*63
1487480520.27,25545,10.88,73366.0,-11.49,-12.47,-12.61,0,*6A
1487480521.51,25546,10.88,73366.8,-11.49,-12.47,-12.53,0,*68
1487480522.77,25547,10.88,73364.0,-11.51,-12.43,-12.65,0,*61
1487480524.01,25548,10.88,73364.0,-11.49,-12.47,-12.61,0,*67
1487480525.25,25549,10.88,73368.3,-11.49,-12.47,-12.61,0,*66
1487480526.48,25550,10.88,73364.8,-11.49,-12.47,-12.61,0,*6E
1487480527.72,25551,10.88,73368.8,-11.49,-12.47,-12.61,0,*6F
1487480529.01,25552,10.88,73364.5,-11.51,-12.53,-12.65,0,*64
1487480530.24,25553,10.88,73364.8,-11.49,-12.47,-12.65,0,*69
1487480531.5,25554,10.88,73368.3,-11.49,-12.53,-12.65,0,*6B
1487480532.8,25555,10.88,73370.0,-11.51,-12.53,-12.71,0,*66
1487480534.04,25556,10.88,73366.8,-11.49,-12.47,-12.75,0,*6D
1487480535.3,25557,10.88,73368.0,-11.49,-12.53,-12.65,0,*68
1487480536.54,25558,10.88,73370.5,-11.49,-12.47,-12.61,0,*66
1487480537.8,25559,10.88,73364.8,-11.49,-12.53,-12.65,0,*66
1487480539.04,25560,10.88,73368.0,-11.49,-12.47,-12.65,0,*69
1487480540.32,25561,10.88,73370.8,-11.51,-12.57,-12.57,0,*61
1487480541.56,25562,10.88,73364.5,-11.49,-12.39,-12.61,0,*66
1487480542.79,25563,10.88,73366.3,-11.49,-12.39,-12.61,0,*67
1487480544.03,25564,10.88,73368.0,-11.49,-12.47,-12.61,0,*69
1487480545.32,25565,10.88,73370.5,-11.51,-12.53,-12.65,0,*60
1487480546.56,25566,10.88,73368.3,-11.49,-12.47,-12.53,0,*6A
1487480547.8,25567,10.88,73370.0,-11.49,-12.39,-12.53,0,*62
1487480549.03,25568,10.88,73366.5,-11.49,-12.43,-12.57,0,*64
1487480550.24,25569,10.88,73366.8,-11.49,-12.39,-12.47,0,*69
1487480551.53,25570,10.88,73366.3,-11.51,-12.53,-12.57,0,*65
1487480552.75,25571,10.88,73366.0,-11.49,-12.39,-12.47,0,*60
1487480553.96,25572,10.88,73366.8,-11.49,-12.39,-12.47,0,*63
1487480555.19,25573,10.88,73366.0,-11.51,-12.43,-12.43,0,*62
1487480556.43,25574,10.88,73366.3,-11.51,-12.39,-12.43,0,*68
1487480557.69,25575,10.88,73364.5,-11.51,-12.39,-12.53,0,*68
1487480558.93,25576,10.88,73366.0,-11.49,-12.35,-12.39,0,*62
1487480560.17,25577,10.88,73368.5,-11.49,-12.35,-12.39,0,*63
1487480561.41,25578,10.88,73368.5,-11.49,-12.35,-12.39,0,*6C
1487480562.62,25579,10.88,73368.5,-11.49,-12.39,-12.47,0,*68
1487480563.84,25580,10.88,73368.0,-11.49,-12.39,-12.39,0,*67
1487480565.1,25581,10.88,73368.0,-11.51,-12.43,-12.53,0,*6E
1487480566.36,25582,10.88,73364.0,-11.51,-12.43,-12.53,0,*6D
1487480567.57,25583,10.88,73368.5,-11.49,-12.39,-12.39,0,*64
1487480568.78,25584,10.88,73366.8,-11.49,-12.43,-12.43,0,*63
1487480570.02,25585,10.88,73364.5,-11.51,-12.43,-12.43,0,*6B
1487480571.28,25586,10.88,73370.3,-11.51,-12.39,-12.53,0,*64
1487480572.52,25587,10.88,73370.8,-11.49,-12.35,-12.47,0,*65
1487480573.78,25588,10.88,73366.5,-11.51,-12.39,-12.53,0,*6A
1487480575.08,25589,10.88,73366.5,-11.51,-12.35,-12.53,0,*67
1487480576.34,25590,10.88,73364.0,-11.51,-12.39,-12.53,0,*63
1487480577.6,25591,10.88,73370.3,-11.51,-12.39,-12.53,0,*62
1487480578.89,25592,10.88,73368.3,-11.51,-12.53,-12.57,0,*69
1487480580.13,25593,10.88,73368.5,-11.49,-12.47,-12.61,0,*61
1487480581.42,25594,10.88,73368.0,-11.51,-12.53,-12.57,0,*6F
1487480582.65,25595,10.88,73368.0,-11.49,-12.47,-12.65,0,*63
1487480583.89,25596,10.88,73368.8,-11.49,-12.47,-12.65,0,*60
1487480585.18,25597,10.88,73370.0,-11.51,-12.57,-12.71,0,*6C
1487480586.47,25598,10.88,73368.8,-11.51,-12.57,-12.71,0,*63
1487480587.77,25599,10.88,73366.0,-11.51,-12.57,-12.71,0,*62
1487480589.06,25600,10.88,73368.8,-11.51,-12.65,-12.71,0,*60
1487480590.35,25601,10.88,73368.5,-11.51,-12.57,-12.71,0,*60
1487480591.65,25602,10.88,73372.3,-11.51,-12.65,-12.71,0,*62
1487480592.94,25603,10.88,73368.3,-11.51,-12.65,-12.79,0,*6B
1487480594.22,25604,10.88,73364.5,-11.51,-12.65,-12.83,0,*69
1487480595.49,25605,10.88,73364.3,-11.49,-12.53,-12.75,0,*6D
1487480596.78,25606,10.88,73364.8,-11.51,-12.71,-12.79,0,*6B
1487480598.07,25607,10.88,73366.5,-11.51,-12.65,-12.79,0,*6F
1487480599.36,25608,10.88,73364.5,-11.51,-12.65,-12.79,0,*60
1487480600.65,25609,10.88,73364.8,-11.51,-12.71,-12.79,0,*64
1487480601.92,25610,10.88,73368.5,-11.51,-12.71,-12.93,0,*68
1487480603.2,25611,10.88,73364.8,-11.51,-12.79,-12.83,0,*60
1487480604.49,25612,10.88,73368.5,-11.51,-12.79,-12.83,0,*63
1487480605.78,25613,10.88,73366.0,-11.55,-12.71,-12.83,0,*6E
1487480607.07,25614,10.88,73364.0,-11.55,-12.71,-12.83,0,*69
1487480608.36,25615,10.88,73364.8,-11.51,-12.71,-12.79,0,*69
1487480609.66,25616,10.88,73364.8,-11.51,-12.57,-12.71,0,*66
1487480610.95,25617,10.88,73364.3,-11.51,-12.71,-12.71,0,*63
1487480612.24,25618,10.88,73370.8,-11.51,-12.71,-12.79,0,*64
1487480613.53,25619,10.88,73368.0,-11.51,-12.65,-12.79,0,*60
1487480614.82,25620,10.88,73364.0,-11.51,-12.57,-12.79,0,*6B
1487480616.11,25621,10.88,73362.8,-11.51,-12.65,-12.79,0,*6B
1487480617.4,25622,10.88,73362.0,-11.51,-12.71,-12.79,0,*6D
1487480618.69,25623,10.88,73368.3,-11.51,-12.65,-12.79,0,*69
1487480619.98,25624,10.88,73364.3,-11.55,-12.71,-12.83,0,*6A
1487480621.28,25625,10.88,73364.3,-11.55,-12.57,-12.71,0,*62
1487480622.57,25626,10.88,73366.8,-11.55,-12.65,-12.79,0,*68
1487480623.84,25627,10.88,73368.3,-11.57,-12.61,-12.75,0,*63
1487480625.13,25628,10.88,73370.8,-11.55,-12.65,-12.71,0,*6E
1487480626.43,25629,10.88,73368.3,-11.55,-12.65,-12.71,0,*6F
1487480627.72,25630,10.88,73370.8,-11.55,-12.57,-12.71,0,*66
1487480629.01,25631,10.88,73368.0,-11.51,-12.65,-12.79,0,*6A
1487480630.31,25632,10.88,73370.3,-11.55,-12.71,-12.71,0,*60
1487480631.55,25633,10.88,73370.3,-11.57,-12.75,-12.89,0,*60
1487480632.85,25634,10.88,73370.5,-11.55,-12.71,-12.83,0,*6B
1487480634.14,25635,10.88,73368.5,-11.55,-12.71,-12.83,0,*6A
1487480635.43,25636,10.88,73370.5,-11.55,-12.71,-12.83,0,*69
1487480636.72,25637,10.88,73364.8,-11.55,-12.79,-12.83,0,*60
1487480638.01,25638,10.88,73370.5,-11.55,-12.79,-12.83,0,*6F
1487480639.3,25639,10.88,73366.3,-11.55,-12.79,-12.83,0,*6E
1487480640.56,25640,10.88,73370.0,-11.55,-12.83,-12.97,0,*60
1487480641.8,25641,10.88,73368.3,-11.57,-12.97,-13.01,0,*68
1487480643.03,25642,10.88,73364.5,-11.57,-12.89,-13.01,0,*64
1487480644.27,25643,10.88,73366.0,-11.55,-12.93,-13.07,0,*6A
1487480645.51,25644,10.88,73368.3,-11.55,-12.93,-13.07,0,*6D
1487480646.75,25645,10.88,73368.0,-11.55,-12.93,-13.07,0,*6C
1487480647.96,25646,10.88,73368.0,-11.57,-12.97,-13.15,0,*6A
1487480649.17,25647,10.88,73374.0,-11.57,-12.97,-13.23,0,*6E
1487480650.42,25648,10.88,73368.3,-11.55,-12.97,-13.19,0,*6A
1487480651.63,25649,10.88,73372.0,-11.57,-13.07,-13.11,0,*69
1487480652.87,25650,10.88,73370.3,-11.57,-13.01,-13.15,0,*63
1487480654.1,25651,10.88,73374.0,-11.57,-13.01,-13.15,0,*62
1487480655.32,25652,10.88,73368.5,-11.57,-12.97,-13.11,0,*6B
1487480656.53,25653,10.88,73370.3,-11.57,-12.89,-13.11,0,*65
1487480657.76,25654,10.88,73370.5,-11.57,-12.97,-13.01,0,*6C
1487480659.0,25655,10.88,73366.5,-11.57,-12.89,-13.01,0,*62
1487480660.23,25656,10.88,73364.0,-11.57,-12.89,-13.01,0,*61
1487480661.47,25657,10.88,73366.5,-11.57,-12.75,-12.89,0,*62
1487480662.71,25658,10.88,73362.3,-11.57,-12.75,-12.89,0,*6D
1487480663.98,25659,10.88,73366.3,-11.57,-12.71,-12.83,0,*62
1487480665.24,25660,10.88,73362.5,-11.57,-12.61,-12.75,0,*60
1487480666.51,25661,10.88,73366.0,-11.57,-12.71,-12.75,0,*60
1487480667.78,25662,10.88,73366.8,-11.57,-12.71,-12.75,0,*63
1487480669.04,25663,10.88,73366.0,-11.57,-12.61,-12.75,0,*63
1487480670.33,25664,10.88,73366.8,-11.59,-12.71,-12.75,0,*6B
1487480671.62,25665,10.88,73366.3,-11.59,-12.61,-12.61,0,*6E
1487480672.91,25666,10.88,73370.8,-11.59,-12.57,-12.61,0,*68
1487480674.2,25667,10.88,73366.8,-11.59,-12.57,-12.61,0,*69
1487480675.46,25668,10.88,73366.8,-11.59,-12.47,-12.61,0,*67
1487480676.73,25669,10.88,73366.8,-11.59,-12.47,-12.61,0,*66
1487480677.97,25670,10.88,73364.5,-11.59,-12.47,-12.47,0,*6A
1487480679.23,25671,10.88,73366.3,-11.59,-12.47,-12.61,0,*6F
1487480680.5,25672,10.88,73372.0,-11.59,-12.47,-12.61,0,*6C
1487480681.79,25673,10.88,73374.3,-11.59,-12.57,-12.71,0,*6D
1487480683.08,25674,10.88,73368.0,-11.59,-12.57,-12.61,0,*6B
1487480684.37,25675,10.88,73370.3,-11.59,-12.57,-12.61,0,*6A
1487480685.67,25676,10.88,73370.8,-11.59,-12.61,-12.71,0,*6D
1487480686.96,25677,10.88,73366.3,-11.59,-12.61,-12.71,0,*6C
1487480688.23,25678,10.88,73366.0,-11.57,-12.57,-12.75,0,*6C
1487480689.49,25679,10.88,73364.8,-11.57,-12.57,-12.61,0,*68
1487480690.76,25680,10.88,73366.5,-11.57,-12.57,-12.71,0,*6F
1487480692.03,25681,10.88,73368.3,-11.57,-12.61,-12.71,0,*6B
1487480693.32,25682,10.88,73364.8,-11.59,-12.57,-12.71,0,*63
1487480694.62,25683,10.88,73362.8,-11.59,-12.57,-12.71,0,*62
1487480695.88,25684,10.88,73362.8,-11.57,-12.61,-12.71,0,*6E
1487480697.18,25685,10.88,73362.0,-11.59,-12.61,-12.71,0,*61
1487480698.47,25686,10.88,73362.8,-11.59,-12.57,-12.71,0,*67
1487480699.75,25687,10.88,73370.0,-11.59,-12.47,-12.71,0,*67
1487480701.01,25688,10.88,73368.8,-11.59,-12.47,-12.61,0,*69
1487480702.28,25689,10.88,73366.8,-11.59,-12.47,-12.61,0,*68
1487480703.51,25690,10.88,73364.5,-11.57,-12.47,-12.61,0,*6E
1487480704.75,25691,10.88,73362.0,-11.57,-12.47,-12.57,0,*6A
1487480706.04,25692,10.88,73362.3,-11.59,-12.57,-12.61,0,*63
1487480707.3,25693,10.88,73362.3,-11.59,-12.47,-12.61,0,*63
1487480708.55,25694,10.88,73356.8,-11.59,-12.47,-12.47,0,*60
1487480709.81,25695,10.88,73364.0,-11.59,-12.43,-12.57,0,*64
1487480711.04,25696,10.88,73366.3,-11.57,-12.43,-12.57,0,*69
1487480712.28,25697,10.88,73360.0,-11.57,-12.43,-12.57,0,*68
1487480713.49,25698,10.88,73356.0,-11.57,-12.43,-12.47,0,*66
1487480714.7,25699,10.88,73362.5,-11.57,-12.43,-12.47,0,*67
1487480715.91,25700,10.88,73364.0,-11.57,-12.39,-12.47,0,*6B
1487480717.12,25701,10.88,73364.5,-11.57,-12.39,-12.47,0,*6A
1487480718.34,25702,10.88,73368.0,-11.57,-12.39,-12.43,0,*6D
1487480719.55,25703,10.88,73366.8,-11.57,-12.39,-12.39,0,*61
1487480720.76,25704,10.88,73360.5,-11.57,-12.43,-12.39,0,*6B
1487480721.97,25705,10.88,73364.5,-11.57,-12.39,-12.39,0,*67
1487480723.18,25706,10.88,73368.3,-11.57,-12.39,-12.43,0,*69
1487480724.4,25707,10.88,73370.5,-11.57,-12.43,-12.39,0,*68
1487480725.66,25708,10.88,73366.0,-11.55,-12.35,-12.39,0,*64
1487480726.88,25709,10.88,73370.3,-11.57,-12.43,-12.47,0,*6F
1487480728.09,25710,10.88,73368.8,-11.57,-12.43,-12.47,0,*67
1487480729.33,25711,10.88,73370.5,-11.57,-12.39,-12.53,0,*6E
1487480730.59,25712,10.88,73370.0,-11.55,-12.39,-12.53,0,*6F
1487480731.83,25713,10.88,73368.8,-11.57,-12.43,-12.61,0,*60
1487480733.06,25714,10.88,73370.8,-11.57,-12.47,-12.61,0,*63
1487480734.31,25715,10.88,73366.8,-11.57,-12.47,-12.71,0,*63
1487480735.55,25716,10.88,73366.5,-11.57,-12.47,-12.61,0,*61
1487480736.78,25717,10.88,73368.3,-11.57,-12.43,-12.57,0,*61
1487480738.05,25718,10.88,73368.8,-11.57,-12.57,-12.75,0,*6B
1487480739.31,25719,10.88,73368.0,-11.57,-12.57,-12.75,0,*6A
1487480740.57,25720,10.88,73366.8,-11.57,-12.61,-12.83,0,*6C
1487480741.87,25721,10.88,73368.8,-11.55,-12.65,-12.79,0,*6E
1487480743.16,25722,10.88,73366.5,-11.55,-12.65,-12.79,0,*6D
1487480744.4,25723,10.88,73366.3,-11.57,-12.71,-12.89,0,*64
1487480745.64,25724,10.88,73366.3,-11.57,-12.75,-12.89,0,*67
1487480746.89,25725,10.88,73364.0,-11.57,-12.75,-12.89,0,*66
1487480748.13,25726,10.88,73364.5,-11.57,-12.75,-12.97,0,*6A
1487480749.37,25727,10.88,73370.3,-11.57,-12.75,-12.97,0,*6B
1487480750.61,25728,10.88,73368.5,-11.57,-12.75,-12.97,0,*64
1487480751.86,25729,10.88,73368.5,-11.57,-12.75,-12.97,0,*65
1487480753.15,25730,10.88,73368.0,-11.55,-12.71,-12.83,0,*6E
1487480754.38,25731,10.88,73368.3,-11.57,-12.83,-12.89,0,*6A
1487480755.62,25732,10.88,73366.5,-11.57,-12.83,-12.97,0,*66
1487480756.89,25733,10.88,73370.5,-11.55,-12.71,-12.93,0,*6C
1487480758.13,25734,10.88,73364.0,-11.57,-12.75,-12.97,0,*69
1487480759.37,25735,10.88,73366.0,-11.57,-12.61,-12.89,0,*62
1487480760.63,25736,10.81,73364.8,-11.57,-12.61,-12.83,0,*6B
1487480761.89,25737,10.88,73368.0,-11.57,-12.61,-12.83,0,*6A
1487480763.18,25738,10.88,73368.5,-11.59,-12.71,-12.83,0,*6A
1487480764.45,25739,10.88,73366.3,-11.59,-12.71,-12.89,0,*61
1487480765.71,25740,10.88,73368.0,-11.59,-12.71,-12.89,0,*6F
1487480766.98,25741,10.88,73364.8,-11.59,-12.71,-12.89,0,*6E
1487480768.25,25742,10.88,73366.8,-11.59,-12.75,-12.97,0,*66
1487480769.49,25743,10.88,73360.5,-11.57,-12.83,-12.89,0,*6F
1487480770.72,25744,10.88,73366.0,-11.57,-12.83,-12.97,0,*67
1487480771.98,25745,10.88,73366.5,-11.59,-12.89,-13.01,0,*6C
1487480773.22,25746,10.88,73366.3,-11.59,-12.89,-13.11,0,*6E
1487480774.48,25747,10.88,73364.5,-11.59,-12.89,-13.01,0,*6E
1487480775.69,25748,10.88,73366.5,-11.61,-12.93,-13.11,0,*60
1487480776.91,25749,10.88,73364.8,-11.61,-12.93,-13.11,0,*61
1487480778.17,25750,10.88,73366.8,-11.59,-12.83,-12.97,0,*6C
1487480779.46,25751,10.88,73368.8,-11.59,-12.75,-13.01,0,*6A
1487480780.72,25752,10.88,73364.8,-11.59,-12.83,-12.97,0,*6E
1487480781.99,25753,10.88,73366.8,-11.59,-12.75,-12.97,0,*66
1487480783.26,25754,10.88,73368.0,-11.59,-12.75,-12.97,0,*61
1487480784.5,25755,10.88,73366.8,-11.61,-12.89,-13.01,0,*66
1487480785.77,25756,10.88,73366.3,-11.59,-12.75,-12.97,0,*63
1487480787.03,25757,10.88,73366.0,-11.59,-12.83,-12.97,0,*6B
1487480788.3,25758,10.88,73366.5,-11.59,-12.75,-12.97,0,*6D
1487480789.56,25759,10.88,73366.8,-11.59,-12.83,-12.97,0,*65
1487480790.83,25760,10.88,73370.0,-11.59,-12.75,-12.97,0,*66
1487480792.09,25761,10.88,73366.8,-11.59,-12.83,-12.97,0,*6E
1487480793.36,25762,10.88,73364.8,-11.59,-12.83,-12.97,0,*6D
1487480794.59,25763,10.88,73366.8,-11.61,-12.89,-13.01,0,*63
1487480795.82,25764,10.88,73364.5,-11.61,-12.89,-13.01,0,*64
1487480797.09,25765,10.88,73364.3,-11.59,-12.83,-12.97,0,*6A
1487480798.3,25766,10.88,73362.8,-11.61,-12.89,-12.93,0,*6C
1487480799.53,25767,10.88,73364.0,-11.61,-12.89,-13.01,0,*67
1487480800.77,25768,10.88,73368.3,-11.61,-12.79,-12.93,0,*6D
1487480802.02,25769,10.88,73364.3,-11.61,-12.79,-12.93,0,*6C
1487480803.26,25770,10.88,73364.8,-11.61,-12.79,-12.93,0,*64
1487480804.5,25771,10.88,73368.5,-11.61,-12.75,-12.89,0,*62
1487480805.74,25772,10.88,73368.0,-11.61,-12.75,-12.89,0,*61
1487480807.01,25773,10.88,73368.3,-11.61,-12.75,-12.79,0,*6F
1487480808.31,25774,10.88,73366.3,-11.59,-12.71,-12.75,0,*6B
1487480809.57,25775,10.88,73360.5,-11.61,-12.65,-12.75,0,*64
1487480810.84,25776,10.88,73364.3,-11.61,-12.75,-12.75,0,*66
1487480812.11,25777,10.88,73370.8,-11.61,-12.65,-12.75,0,*66
1487480813.38,25778,10.88,73368.3,-11.61,-12.65,-12.75,0,*69
1487480814.67,25779,10.88,73364.3,-11.59,-12.61,-12.71,0,*63
1487480815.94,25780,10.88,73366.8,-11.61,-12.75,-12.79,0,*63
1487480817.23,25781,10.88,73364.3,-11.59,-12.71,-12.83,0,*68
1487480818.47,25782,10.88,73368.0,-11.61,-12.75,-12.89,0,*6E
1487480819.72,25783,10.88,73368.5,-11.61,-12.75,-12.89,0,*6F
1487480820.96,25784,10.88,73362.8,-11.61,-12.79,-12.93,0,*6F
1487480822.2,25785,10.88,73364.3,-11.61,-12.75,-12.93,0,*62
1487480823.46,25786,10.88,73364.8,-11.61,-12.75,-13.01,0,*6B
1487480824.7,25787,10.88,73366.5,-11.61,-12.89,-13.01,0,*69
1487480825.95,25788,10.88,73364.3,-11.61,-12.79,-13.01,0,*69
1487480827.19,25789,10.88,73364.5,-11.61,-12.89,-13.01,0,*67
1487480828.42,25790,10.88,73366.8,-11.61,-12.89,-13.01,0,*6F
1487480829.66,25791,10.88,73366.3,-11.61,-12.79,-12.93,0,*6B
1487480830.92,25792,10.88,73370.3,-11.61,-12.83,-13.01,0,*67
1487480832.18,25793,10.88,73368.3,-11.61,-12.79,-13.01,0,*63
1487480833.41,25794,10.88,73366.3,-11.61,-12.89,-13.01,0,*6B
1487480834.67,25795,10.88,73370.0,-11.61,-12.79,-13.01,0,*65
1487480835.9,25796,10.88,73366.0,-11.61,-12.93,-13.01,0,*62
1487480837.14,25797,10.88,73366.5,-11.65,-12.83,-13.07,0,*60
1487480838.35,25798,10.88,73368.3,-11.65,-12.93,-13.07,0,*6E
1487480839.57,25799,10.88,73366.3,-11.65,-12.93,-12.97,0,*67
1487480840.78,25800,10.88,73370.8,-11.61,-12.89,-13.15,0,*6C
1487480841.99,25801,10.88,73366.5,-11.61,-12.89,-13.07,0,*6E
1487480843.24,25802,10.88,73368.8,-11.67,-12.97,-13.19,0,*6B
1487480844.46,25803,10.88,73368.0,-11.65,-12.97,-13.07,0,*67
1487480845.67,25804,10.88,73366.5,-11.65,-12.93,-13.07,0,*64
1487480846.89,25805,10.88,73368.5,-11.65,-12.93,-13.11,0,*62
1487480848.11,25806,10.88,73368.5,-11.65,-12.93,-13.11,0,*61
1487480849.32,25807,10.88,73370.5,-11.65,-12.93,-13.07,0,*67
1487480850.54,25808,10.88,73366.8,-11.65,-12.93,-13.07,0,*68
1487480851.76,25809,10.88,73372.3,-11.65,-12.93,-13.11,0,*6E
1487480853.0,25810,10.88,73372.5,-11.67,-13.07,-13.11,0,*68
1487480854.22,25811,10.88,73368.0,-11.65,-13.07,-13.19,0,*63
1487480855.44,25812,10.88,73366.5,-11.65,-12.97,-13.19,0,*68
1487480856.66,25813,10.88,73368.5,-11.65,-12.97,-13.11,0,*61
1487480857.9,25814,10.88,73370.3,-11.61,-13.01,-13.15,0,*68
1487480859.11,25815,10.88,73370.3,-11.65,-12.97,-13.11,0,*67
1487480860.34,25816,10.88,73366.8,-11.65,-13.07,-13.19,0,*64
1487480861.56,25817,10.88,73370.5,-11.65,-12.97,-13.19,0,*6D
1487480862.81,25818,10.88,73370.0,-11.67,-13.07,-13.19,0,*68
1487480864.05,25819,10.88,73368.5,-11.67,-12.97,-13.19,0,*61
1487480865.3,25820,10.88,73368.0,-11.67,-12.97,-13.19,0,*6B
1487480866.55,25821,10.88,73368.5,-11.67,-12.97,-13.19,0,*6A
1487480867.8,25822,10.88,73368.5,-11.67,-12.97,-13.19,0,*69
1487480869.02,25823,10.88,73370.8,-11.65,-12.97,-13.11,0,*62
1487480870.24,25824,10.88,73372.3,-11.65,-12.97,-13.19,0,*6D
1487480871.48,25825,10.88,73370.5,-11.67,-13.07,-13.11,0,*6E
1487480872.72,25826,10.88,73372.0,-11.67,-12.97,-13.11,0,*65
1487480873.96,25827,10.88,73374.0,-11.67,-12.93,-13.07,0,*67
1487480875.21,25828,10.88,73366.8,-11.67,-12.93,-13.11,0,*6F
1487480876.44,25829,10.88,73364.3,-11.67,-13.07,-13.11,0,*62
1487480877.69,25830,10.88,73364.0,-11.67,-12.97,-13.11,0,*62
1487480878.93,25831,10.88,73366.3,-11.67,-12.97,-13.11,0,*63
1487480880.18,25832,10.88,73366.3,-11.67,-12.97,-13.19,0,*68
1487480881.42,25833,10.88,73368.3,-11.67,-13.07,-13.11,0,*69
1487480882.66,25834,10.88,73370.0,-11.67,-12.97,-13.19,0,*6E
1487480883.89,25835,10.88,73370.3,-11.65,-12.97,-13.19,0,*6D
1487480885.13,25836,10.88,73364.8,-11.67,-13.07,-13.23,0,*6D
1487480886.38,25837,10.88,73368.0,-11.67,-13.07,-13.19,0,*65
1487480887.63,25838,10.88,73368.5,-11.67,-12.97,-13.19,0,*62
1487480888.84,25839,10.88,73372.3,-11.65,-12.97,-13.11,0,*69
1487480890.08,25840,10.88,73372.8,-11.67,-12.97,-13.11,0,*65
1487480891.33,25841,10.88,73370.8,-11.67,-12.93,-13.11,0,*60
1487480892.57,25842,10.88,73372.5,-11.67,-12.93,-13.11,0,*63